Regional Weather Roundup
Issued by NWS

Home | Current Version | Previous Version | Graphics & Text | Print | Product List | Glossary On
Versions: 1 2 3 4 5 6 7 8 9 10 11 12 13 14 15 16 17 18 19 20 21 22 23 24 25 26 27
000
ASUS45 KBOI 050910
RWRID

IDAHO REGIONAL WEATHER ROUNDUP
NATIONAL WEATHER SERVICE BOISE ID
200 AM MST MON DEC 05 2016

NOTE: "FAIR" INDICATES FEW OR NO CLOUDS BELOW 12000 FEET
WITH NO SIGNIFICANT WEATHER AND/OR OBSTRUCTIONS TO VISIBILITY

IDZ012-014-051000-
SOUTHWEST IDAHO


CITY           SKY/WX    TMP DP  RH WIND       PRES   REMARKS
BOISE          CLEAR     27  17  66 NW7       30.05R WCI  19
CALDWELL       CLEAR     27  18  69 W13       30.08R WCI  16
MOUNTAIN HOME  CLEAR     28  20  71 NW20      30.02R WCI  15
$$

IDZ016-017-051000-
SOUTHCENTRAL IDAHO


CITY           SKY/WX    TMP DP  RH WIND       PRES   REMARKS
BURLEY         FLURRIES  26  19  74 W20G36    29.89R WCI  12
JEROME         PTCLDY    24  17  74 W23G30    29.94R WCI   9
TWIN FALLS     CLOUDY    24  17  74 W24G32    29.95R WCI   8
$$

IDZ019>023-051000-
SOUTHEAST IDAHO


CITY           SKY/WX    TMP DP  RH WIND       PRES   REMARKS
IDAHO FALLS    CLOUDY    29  15  56 SW21G35   29.71R WCI  16
POCATELLO      CLOUDY    28  24  85 SW32G41   29.81R WCI  12
REXBURG        FLURRIES  27  18  69 VRB3      29.69R
$$

IDZ006-010-011-018-031-032-051000-
CENTRAL IDAHO MOUNTAINS


CITY           SKY/WX    TMP DP  RH WIND       PRES   REMARKS
MCCALL         PTCLDY    13   9  84 CALM      29.90R
HAILEY         CLEAR     25   3  39 NW20      29.80R WCI  11
STANLEY          N/A      9   2  73 NW6       29.82R WCI  -1
SALMON         PTCLDY    19   7  58 NW3       29.86R
CHALLIS        PTCLDY    20  13  74 NW8       29.82R WCI  10
$$

IDZ002-004-006-007-026-051000-
NORTHERN IDAHO


CITY           SKY/WX    TMP DP  RH WIND       PRES   REMARKS
LEWISTON       CLOUDY    33  19  56 SW9       30.07R WCI  25
LOWELL           N/A     30  27  88 CALM      30.08R
COEUR D`ALENE  CLEAR     25  16  68 SW9       29.96R WCI  15
MULLAN PASS    CLOUDY    11   7  84 NW12G24   29.72R WCI  -3
$$




USA.gov is the U.S. government's official web portal to all federal, state and local government web resources and services.